#timestamp,LO_Frequency,Hit,StdDev 
1569672015.2,286046997.7,N
1569672035.0,286046999.2,N
1569672035.9,286046999.2,N
1569672055.8,286046998.9,N
1569672075.6,286046999.2,N
1569672095.5,286046997.7,N
1569672115.3,286046995.0,Y
1569672135.1,286046999.1,P
1569672155.9,286046998.9,N
1569672175.7,286047000.8,N
1569672195.5,286046998.6,N
1569672215.4,286047002.3,N
1569672235.2,286047001.9,N
1569672255.1,286047001.6,N
1569672256.0,286047001.6,N
1569672275.8,286047001.7,N
1569672295.6,286047003.9,N
1569672315.5,286047001.9,N
1569672335.3,286046999.8,N
1569672355.2,286047002.3,N
1569672375.9,286046999.8,N
1569672395.7,286047000.1,N
1569672415.6,286047001.8,N
1569672435.4,286047003.4,N
1569672455.2,286047004.8,N
1569672475.1,286047007.2,Y
1569672476.0,286047007.2,P
1569672495.8,286047002.9,N
1569672515.7,286047001.7,N
1569672535.5,286047001.9,N
1569672555.3,286047002.2,N
1569672575.2,286047002.1,N
1569672595.0,286046999.9,N
1569672595.9,286046999.9,N
1569672615.8,286047000.5,N
1569672635.6,286047001.3,N
1569672655.4,286047001.3,N
1569672675.3,286047003.3,N
1569672695.1,286047002.2,N
1569672715.9,286047002.6,N
1569672735.7,286046999.9,N
1569672755.5,286047002.6,N
1569672775.4,286047002.9,N
1569672795.2,286047005.8,Y
1569672815.0,286047004.4,P
1569672816.0,286047004.4,P
1569672835.8,286047002.5,N
1569672855.6,286047000.4,N
1569672875.5,286047001.0,N
1569672895.3,286047000.4,N
1569672915.1,286047002.6,N
1569672935.9,286047002.5,N
1569672955.7,286047004.3,Y
1569672975.6,286046998.5,P
1569672995.0,286046999.7,N
1569672995.9,286046999.7,N
1569673015.8,286047001.0,N
1569673035.6,286047000.9,N
1569673055.4,286047000.6,N
1569673075.3,286046999.7,N
1569673095.1,286046999.7,N
1569673115.8,286047000.3,N
1569673135.7,286047002.8,N
1569673155.5,286046996.6,N
1569673175.4,286046999.5,N
1569673195.2,286046997.4,N
1569673215.0,286046997.3,N
1569673215.9,286046997.3,N
1569673235.8,286046995.3,N
1569673255.6,286046995.4,N
1569673275.5,286046995.2,N
1569673295.3,286046995.6,N
1569673315.1,286046995.4,N
1569673335.9,286046996.6,N
1569673355.7,286046998.9,N
1569673375.5,286046997.1,N
1569673395.4,286046994.9,N
1569673415.2,286046997.2,N
1569673435.1,286046996.9,N
1569673436.0,286046996.9,N
1569673455.8,286046995.0,N
1569673475.6,286046995.1,N
1569673495.5,286046993.7,N
1569673515.3,286046994.1,N
1569673535.1,286046993.8,N
1569673555.9,286046995.5,N
1569673575.7,286046995.5,N
1569673595.6,286046997.9,N
1569673615.4,286046995.6,N
1569673635.2,286046995.6,N
1569673655.1,286046995.1,N
1569673656.0,286046995.1,N
1569673675.8,286046995.4,N
1569673695.7,286046995.0,Y
1569673715.5,286047000.8,P
1569673735.3,286046999.9,N
1569673755.2,286047002.4,N
1569673775.0,286047000.1,N
1569673775.9,286047000.1,N
1569673795.8,286047002.8,N
1569673815.6,286047000.3,N
1569673835.4,286047002.3,N
1569673855.3,286047001.6,N
1569673875.1,286047001.7,N
1569673895.8,286047003.0,N
1569673915.7,286047004.4,N
1569673935.5,286047003.3,N
1569673955.4,286047005.4,N
1569673975.2,286047005.7,N
1569673995.0,286047005.1,N
1569673995.9,286047005.1,N
1569674015.8,286047005.3,N
1569674035.6,286047005.6,N
1569674055.5,286047003.7,N
1569674075.3,286047005.9,N
1569674095.1,286047005.5,N
1569674115.9,286047003.5,N
1569674135.7,286047005.7,N
1569674155.5,286047005.0,N
1569674175.4,286047006.4,N
1569674195.2,286047007.0,N
1569674215.1,286047007.0,N
1569674216.0,286047007.0,N
1569674235.8,286047006.1,N
1569674255.6,286047006.7,N
1569674275.5,286047005.0,N
1569674295.3,286047003.4,N
1569674315.1,286047003.8,N
1569674335.9,286047003.4,N
1569674355.7,286047002.9,N
1569674375.6,286047004.3,N
1569674395.4,286047003.5,N
1569674415.2,286047005.1,Y
1569674435.1,286047000.7,P
1569674436.0,286047000.7,N
1569674455.8,286047000.8,N
1569674475.7,286047000.0,N
1569674495.5,286046999.9,N
1569674515.3,286046998.2,N
1569674535.2,286047000.8,N
1569674555.0,286047000.8,N
1569674555.9,286047000.8,N
1569674575.7,286046998.6,N
1569674595.6,286046999.9,N
1569674615.4,286047002.5,N
1569674635.3,286046999.8,N
1569674655.1,286047002.8,N
1569674675.8,286047000.5,N
1569674695.7,286047000.0,N
1569674715.5,286047000.4,N
1569674735.4,286047000.4,N
1569674755.2,286047000.8,N
1569674775.0,286047000.1,N
1569674775.9,286047000.1,N
1569674795.8,286047002.0,N
1569674815.6,286047003.9,N
1569674835.5,286047003.7,N
1569674855.3,286047003.9,N
1569674875.1,286047002.4,N
1569674895.9,286046998.2,N
1569674915.7,286046999.9,N
1569674935.6,286047002.2,N
1569674955.4,286047004.4,N
1569674975.2,286047003.8,N
1569674995.1,286047003.1,N
1569674996.0,286047003.1,N
1569675015.8,286047004.2,N
1569675035.7,286047003.8,N
1569675055.5,286047002.9,N
1569675075.3,286047006.0,Y
1569675095.2,286047001.6,P
1569675115.0,286047001.6,P
1569675115.9,286047001.6,P
1569675135.8,286047002.2,Y
1569675155.6,286047000.7,P
1569675175.4,286046998.3,P
1569675195.3,286046999.4,N
1569675215.1,286046997.9,N
1569675235.8,286046995.4,Y
1569675255.7,286046997.7,P
1569675275.5,286046999.5,N
1569675295.4,286046997.2,P
1569675315.2,286046999.2,N
1569675335.0,286046999.3,N
1569675335.9,286046999.3,N
1569675355.8,286046998.8,N
1569675375.6,286046998.3,N
1569675395.5,286046999.0,N
1569675415.3,286046997.8,N
1569675435.1,286046996.8,Y
1569675455.9,286046998.3,P
1569675475.7,286046998.3,P
1569675495.6,286046998.3,P
1569675515.4,286046999.9,N
1569675535.2,286046998.6,N
1569675555.1,286046999.1,N
1569675556.0,286046999.1,N
1569675575.8,286046999.6,N
1569675595.7,286046997.8,Y
